Hourly Data Report for November 10, 2003

TORONTO CITY
ONTARIO

43°40'00.000" N
79°24'00.000" W
112.50 m
6158355
71508
XTO

Download Data

Hourly Data (November 2003)
Hourly Data Report for November 10, 2003
TIME
LST
Temp Definition
°C
Dew Point Definition
°C
Rel Hum Definition
%
Precip. Amount Definition
mm

Wind Dir Definition
10's deg

Wind Spd Definition
km/h
Visibility Definition
km
Stn Press Definition
kPa
Hmdx Definition


Wind Chill Definition


Weather Definition


00:00 0.8 -3.9 71   LegendMM LegendMM LegendMM 101.91     LegendNANA
01:00 -0.3 -4.6 73   LegendMM LegendMM LegendMM 101.86     LegendNANA
02:00 -0.2 -3.7 77   LegendMM LegendMM LegendMM 101.86     LegendNANA
03:00 -0.3 -3.9 77   LegendMM LegendMM LegendMM 101.83     LegendNANA
04:00 -0.7 -4.8 74   LegendMM LegendMM LegendMM 101.79     LegendNANA
05:00 -0.7 -6.1 67   LegendMM LegendMM LegendMM 101.81     LegendNANA
06:00 -0.5 -6.2 65   LegendMM LegendMM LegendMM 101.78     LegendNANA
07:00 -1.0 -6.2 68   LegendMM LegendMM LegendMM 101.74     LegendNANA
08:00 -0.1 -5.4 67   LegendMM LegendMM LegendMM 101.76     LegendNANA
09:00 2.4 -4.7 59   LegendMM LegendMM LegendMM 101.77     LegendNANA
10:00 4.0 -2.5 63   LegendMM LegendMM LegendMM 101.66     LegendNANA
11:00 5.3 -1.0 64   LegendMM LegendMM LegendMM 101.72     LegendNANA
12:00 6.2 -0.4 63   LegendMM LegendMM LegendMM 101.66     LegendNANA
13:00 7.3 0.1 60   LegendMM LegendMM LegendMM 101.58     LegendNANA
14:00 5.9 -0.7 63   LegendMM LegendMM LegendMM 101.45     LegendNANA
15:00 6.1 -0.3 63   LegendMM LegendMM LegendMM 101.40     LegendNANA
16:00 6.3 -0.8 60   LegendMM LegendMM LegendMM 101.39     LegendNANA
17:00 5.8 -0.8 63   LegendMM LegendMM LegendMM 101.32     LegendNANA
18:00 5.9 -0.4 64   LegendMM LegendMM LegendMM 101.29     LegendNANA
19:00 6.4 0.4 65   LegendMM LegendMM LegendMM 101.24     LegendNANA
20:00 6.0 1.9 75   LegendMM LegendMM LegendMM 101.20     LegendNANA
21:00 5.6 2.0 78   LegendMM LegendMM LegendMM 101.14     LegendNANA
22:00 5.2 1.6 78   LegendMM LegendMM LegendMM 101.11     LegendNANA
23:00 5.3 1.0 74   LegendMM LegendMM LegendMM 101.01     LegendNANA

Notes on Data Quality.

Legend

  • E = Estimated
  • M = Missing
  • NA = Not Available*
  • [empty] = Indicates an unobserved value
Date modified: